[[{"header":{"parameterUnit":"m.s-1","parameterCategory":1,"la1":30.2991,"la2":30.254,"lo1":-89.0895,"lo2":-89.0444,"dy":0.0017,"dx":0.0017,"nx":28,"ny":28,"refTime":"2024-03-29T03:00:00:Z","depth":0,"parameterNumber":2,"parameterNumberName":"U-component_of_WINDS"},"data":[0,0,0,0,0,0,0,0,0,0,0,0,0,0,0,0,0,0,0,0,0,0,0,0,0,0,0,0,0,0,0,0,0,0,0,0,0,0,0,0,0,0,0,0,0,0,0,0,0,0,0,0,0,0,0,0,0,0,-0.723,-0.723,0,-0.7268,-0.7268,-0.7268,-0.7288,-0.7288,-0.7288,-0.7288,-0.7327,-0.7328,-0.7329,0,0,0,0,0,0,0,0,0,0,0,0,0,-0.7174,-0.7175,-0.723,-0.723,-0.7231,-0.7268,-0.7268,-0.7269,-0.7288,-0.7288,-0.7288,-0.7288,-0.7326,-0.7328,-0.7329,0,0,0,0,0,0,0,0,0,0,0,0,0,-0.7204,-0.7175,-0.723,-0.7245,-0.7246,-0.7267,-0.7268,-0.7269,-0.7288,-0.7288,-0.7288,-0.7288,-0.7326,-0.7328,-0.7329,-0.7338,0,0,-0.7334,-0.7334,0,0,0,0,0,0,0,0,-0.7202,-0.7206,-0.7242,-0.7244,-0.7246,-0.7273,-0.7263,-0.7292,-0.7288,-0.7272,-0.7288,-0.7288,-0.7309,-0.7312,-0.7319,-0.734,-0.7341,-0.7334,-0.7335,-0.7335,-0.7336,0,0,0,0,0,0,0,-0.72,-0.7204,-0.7245,-0.7243,-0.7245,-0.725,-0.7254,-0.7268,-0.729,-0.7273,-0.7275,-0.7279,-0.731,-0.7317,-0.732,-0.7342,-0.7334,-0.7335,-0.7336,-0.7337,-0.7372,-0.7372,0,0,0,0,0,0,-0.7196,-0.7202,-0.7244,-0.7246,-0.7223,-0.7251,-0.7255,-0.7264,-0.729,-0.7294,-0.7279,-0.728,-0.7315,-0.7318,-0.7321,-0.7334,-0.7335,-0.7337,-0.7338,-0.7372,-0.7372,-0.7372,0,0,0,0,0,0,-0.7194,-0.7199,-0.7242,-0.7225,-0.723,-0.7252,-0.7261,-0.7265,-0.7272,-0.7294,-0.7298,-0.7283,-0.7315,-0.7319,-0.7334,-0.7335,-0.7338,-0.7339,-0.7372,-0.7372,-0.7372,-0.7358,0,0,0,0,0,0,-0.7193,-0.7198,-0.7202,-0.7225,-0.7231,-0.7254,-0.7261,-0.7266,-0.7275,-0.7276,-0.7299,-0.7302,-0.7315,-0.7331,-0.7335,-0.7337,-0.734,-0.7372,-0.7372,-0.7372,-0.7358,-0.7357,-0.7357,0,0,0,0,0,-0.7191,-0.7197,-0.7202,-0.7207,-0.7236,-0.7254,-0.7258,-0.7272,-0.7275,-0.7279,-0.7293,-0.7302,-0.7334,-0.7333,-0.7337,-0.734,-0.7372,-0.7372,-0.7372,-0.7359,-0.7358,-0.7357,0,0,0,0,0,0,-0.7174,-0.72,-0.7206,-0.722,-0.7234,-0.7257,-0.7262,-0.7271,-0.7285,-0.7286,-0.7303,-0.7308,-0.7321,-0.7332,-0.733,-0.735,-0.7354,-0.7355,-0.7342,-0.7341,-0.7341,-0.7338,-0.7341,0,0,0,0,0,-0.7172,-0.7184,-0.7206,-0.7216,-0.7223,-0.7241,-0.7249,-0.7259,-0.7275,-0.7281,-0.7296,-0.7311,-0.7325,-0.7334,-0.7348,-0.736,-0.7365,-0.7364,-0.7363,-0.7362,-0.7363,-0.737,-0.737,-0.7372,-0.7372,-0.7372,0,0,-0.7168,-0.7183,-0.719,-0.7213,-0.7225,-0.7237,-0.7246,-0.7259,-0.7268,-0.7283,-0.7298,-0.7309,-0.7327,-0.7341,-0.7347,-0.735,-0.7363,-0.7362,-0.7362,-0.7363,-0.737,-0.737,-0.737,-0.7372,-0.7372,-0.7372,0,0,-0.7167,-0.7179,-0.7189,-0.7201,-0.722,-0.7232,-0.7234,-0.7256,-0.7264,-0.7278,-0.7291,-0.7302,-0.7325,-0.7337,-0.7346,-0.7349,-0.7358,-0.7353,-0.7349,-0.7356,-0.7355,-0.7355,-0.7356,-0.7357,-0.7354,-0.7354,-0.7354,0,-0.7159,-0.7178,-0.7193,-0.7205,-0.7214,-0.7229,-0.7239,-0.725,-0.7272,-0.7278,-0.7281,-0.731,-0.7323,-0.734,-0.734,-0.7347,-0.7351,-0.7351,-0.7354,-0.7354,-0.7354,-0.7356,-0.7356,-0.7353,-0.7353,-0.7353,-0.7353,0,-0.7168,-0.718,-0.7186,-0.7206,-0.7217,-0.7227,-0.7244,-0.7253,-0.7262,-0.7274,-0.7288,-0.7305,-0.7322,-0.7327,-0.7336,-0.7344,-0.7345,-0.7351,-0.7356,-0.7353,-0.7355,-0.7355,-0.7352,-0.7352,-0.7352,-0.7353,0,0,-0.7157,-0.7186,-0.7188,-0.7198,-0.7219,-0.7229,-0.724,-0.7257,-0.7264,-0.7279,-0.7289,-0.7308,-0.7313,-0.7323,-0.7334,-0.734,-0.7341,-0.7345,-0.7345,-0.7343,-0.7351,-0.7347,-0.7347,-0.7347,-0.7347,-0.7347,-0.735,0,-0.7159,-0.718,-0.7194,-0.7209,-0.7221,-0.7234,-0.7244,-0.7258,-0.727,-0.7281,-0.7294,-0.7307,-0.7313,-0.7319,-0.7326,-0.7339,-0.7343,-0.7339,-0.7356,-0.7356,-0.7351,-0.7348,-0.7344,-0.7346,-0.735,-0.7351,-0.7351,0,-0.7164,-0.7178,-0.7194,-0.7214,-0.722,-0.7228,-0.7245,-0.7256,-0.7272,-0.728,-0.7291,-0.7302,-0.7314,-0.7317,-0.7335,-0.7332,-0.734,-0.7347,-0.7348,-0.735,-0.7353,-0.735,-0.7347,-0.7347,-0.7352,-0.7352,-0.7351,0,-0.7155,-0.7178,-0.7191,-0.7199,-0.7222,-0.7228,-0.7238,-0.7254,-0.7263,-0.7277,-0.7283,-0.7299,-0.7307,-0.7319,-0.7334,-0.7335,-0.7349,-0.7354,-0.7356,-0.7356,-0.7359,-0.7359,-0.7357,-0.7363,-0.7363,-0.7363,-0.7363,0,-0.7156,-0.7165,-0.7187,-0.7195,-0.7206,-0.7222,-0.7232,-0.7243,-0.7257,-0.7268,-0.7281,-0.729,-0.7308,-0.732,-0.7331,-0.7344,-0.7348,-0.7354,-0.7357,-0.7353,-0.7352,-0.7359,-0.7359,-0.7364,-0.7364,-0.7364,-0.7364,0,-0.7148,-0.7163,-0.7177,-0.7198,-0.7204,-0.7211,-0.7229,-0.7237,-0.7249,-0.7261,-0.7265,-0.7284,-0.7298,-0.7314,-0.7333,-0.7341,-0.7353,-0.7357,-0.7347,-0.7349,-0.735,-0.735,-0.7352,-0.7353,-0.7359,-0.7359,-0.7359,0,-0.7147,-0.7155,-0.7176,-0.7184,-0.7194,-0.7206,-0.7215,-0.7231,-0.724,-0.7259,-0.7265,-0.728,-0.7293,-0.7315,-0.733,-0.7345,-0.735,-0.735,-0.7352,-0.7348,-0.735,-0.7349,-0.735,-0.7349,-0.7349,-0.7349,-0.7348,0,-0.7145,-0.7152,-0.7165,-0.718,-0.719,-0.7203,-0.7216,-0.7222,-0.724,-0.725,-0.7264,-0.7274,-0.7294,-0.7309,-0.7326,-0.7336,-0.7346,-0.7347,-0.7349,-0.7345,-0.7339,-0.7342,-0.7345,-0.7347,-0.7348,-0.7348,-0.7348,-0.7348,-0.7141,-0.7148,-0.7164,-0.7178,-0.7189,-0.7201,-0.721,-0.7223,-0.7235,-0.7252,-0.7261,-0.7275,-0.7291,-0.7315,-0.7325,-0.7336,-0.7339,-0.7341,-0.7342,-0.7342,-0.7341,-0.7337,-0.7339,-0.734,-0.734,-0.734,-0.734,0,-0.7139,-0.715,-0.7163,-0.718,-0.7191,-0.7198,-0.7213,-0.7222,-0.7235,-0.7248,-0.7261,-0.7278,-0.7292,-0.7308,-0.7324,-0.733,-0.7334,-0.7333,-0.7333,-0.7335,-0.7337,-0.7335,-0.7329,-0.7329,-0.7329,-0.7329,-0.7329,-0.7329,-0.714,-0.7152,-0.7161,-0.7179,-0.719,-0.7204,-0.7212,-0.7223,-0.7235,-0.7253,-0.7265,-0.7275,-0.729,-0.7306,-0.732,-0.7324,-0.7329,-0.7327,-0.7333,-0.7334,-0.7335,-0.7336,-0.7334,-0.7328,-0.7328,-0.733,-0.733,-0.733]},{"header":{"parameterUnit":"m.s-1","parameterCategory":1,"la1":30.2991,"la2":30.254,"lo1":-89.0895,"lo2":-89.0444,"dy":0.0017,"dx":0.0017,"nx":28,"ny":28,"refTime":"2024-03-29T03:00:00:Z","depth":0,"parameterNumber":3,"parameterNumberName":"V-component_of_WINDS"},"data":[0,0,0,0,0,0,0,0,0,0,0,0,0,0,0,0,0,0,0,0,0,0,0,0,0,0,0,0,0,0,0,0,0,0,0,0,0,0,0,0,0,0,0,0,0,0,0,0,0,0,0,0,0,0,0,0,0,0,3.5441,3.5442,0,3.5541,3.5542,3.5543,3.5511,3.5509,3.5507,3.5505,3.5604,3.5608,3.5613,0,0,0,0,0,0,0,0,0,0,0,0,0,3.5219,3.5223,3.5441,3.5442,3.5443,3.554,3.5542,3.5543,3.5511,3.5509,3.5506,3.5504,3.5602,3.5608,3.5613,0,0,0,0,0,0,0,0,0,0,0,0,0,3.5317,3.5225,3.544,3.5439,3.544,3.554,3.5542,3.5544,3.5512,3.5508,3.5505,3.5502,3.56,3.5607,3.5614,3.5721,0,0,3.5635,3.5638,0,0,0,0,0,0,0,0,3.5311,3.5325,3.5438,3.5439,3.544,3.551,3.55,3.5603,3.5513,3.5484,3.5504,3.5501,3.5575,3.5584,3.5609,3.5725,3.5729,3.5636,3.564,3.5643,3.5645,0,0,0,0,0,0,0,3.5304,3.532,3.548,3.544,3.5441,3.5432,3.5443,3.5519,3.5546,3.5487,3.5484,3.5497,3.5575,3.5603,3.5611,3.5731,3.5635,3.5642,3.5646,3.5649,3.5939,3.5943,0,0,0,0,0,0,3.5297,3.5315,3.5477,3.5483,3.5367,3.5439,3.545,3.5491,3.5545,3.5551,3.55,3.5495,3.5592,3.5603,3.5615,3.5743,3.5643,3.5649,3.5653,3.5936,3.594,3.5944,0,0,0,0,0,0,3.5293,3.5312,3.5473,3.5398,3.5418,3.5446,3.5492,3.5494,3.5522,3.5555,3.5559,3.5523,3.559,3.5605,3.5695,3.5746,3.5652,3.5659,3.5932,3.5937,3.5942,3.6001,0,0,0,0,0,0,3.5286,3.5311,3.5352,3.54,3.5422,3.5552,3.5495,3.5499,3.5535,3.553,3.5579,3.5583,3.5589,3.5685,3.5702,3.5754,3.5664,3.5927,3.5934,3.594,3.5995,3.6008,3.6019,0,0,0,0,0,3.5279,3.5364,3.5354,3.5374,3.5475,3.5555,3.5568,3.5574,3.5539,3.5581,3.5602,3.5582,3.5738,3.5694,3.5713,3.5768,3.5924,3.5932,3.594,3.5989,3.6006,3.6019,0,0,0,0,0,0,3.5321,3.537,3.536,3.5464,3.5506,3.555,3.5602,3.559,3.5642,3.5635,3.5639,3.565,3.5742,3.5764,3.5714,3.5874,3.5826,3.5838,3.5857,3.5872,3.5884,3.5877,3.567,0,0,0,0,0,3.5342,3.5404,3.5444,3.5532,3.5553,3.5574,3.5609,3.561,3.5653,3.567,3.5698,3.574,3.5798,3.5836,3.5892,3.5998,3.6008,3.6045,3.6058,3.6067,3.6078,3.6135,3.6153,3.597,3.597,3.597,0,0,3.5387,3.5422,3.5461,3.5541,3.5573,3.5637,3.5589,3.5658,3.5705,3.568,3.5767,3.5789,3.5836,3.5934,3.5979,3.5955,3.613,3.6078,3.6085,3.609,3.6145,3.6163,3.6178,3.5976,3.5975,3.5974,0,0,3.5501,3.5534,3.5611,3.5645,3.5695,3.5708,3.5727,3.5773,3.5787,3.5874,3.5857,3.5912,3.6013,3.6047,3.6077,3.6205,3.6189,3.6223,3.6286,3.6343,3.6357,3.637,3.6415,3.6431,3.6233,3.6233,3.6233,0,3.555,3.5646,3.5651,3.5722,3.5758,3.574,3.5817,3.5849,3.5915,3.5939,3.5912,3.6038,3.6068,3.6174,3.6206,3.6231,3.6251,3.6217,3.6355,3.6367,3.6379,3.6423,3.644,3.6237,3.6237,3.6236,3.6236,0,3.5704,3.577,3.5826,3.5891,3.5933,3.6006,3.6022,3.6063,3.6061,3.6077,3.6166,3.6201,3.6264,3.6289,3.6286,3.6395,3.6379,3.6353,3.6304,3.6401,3.6441,3.6458,3.6242,3.6241,3.624,3.6239,0,0,3.5847,3.5914,3.5935,3.5964,3.6018,3.607,3.6142,3.6204,3.624,3.6285,3.6346,3.6432,3.6408,3.6443,3.6444,3.6493,3.6592,3.6462,3.6463,3.6485,3.6714,3.6733,3.6752,3.6582,3.6585,3.6587,3.671,0,3.5965,3.6094,3.6101,3.6217,3.6279,3.6263,3.6326,3.6365,3.6382,3.6436,3.6454,3.6515,3.648,3.6501,3.6549,3.657,3.6638,3.6561,3.6637,3.664,3.6626,3.6773,3.6793,3.6907,3.6726,3.6728,3.673,0,3.6121,3.6173,3.6296,3.6342,3.6367,3.6424,3.6482,3.6534,3.6578,3.6587,3.6626,3.662,3.6693,3.6642,3.6743,3.669,3.6722,3.6737,3.6741,3.6749,3.6691,3.6784,3.6944,3.6961,3.6755,3.6753,3.6752,0,3.6213,3.6313,3.64,3.6426,3.6481,3.6521,3.6546,3.6588,3.6625,3.6675,3.6699,3.6756,3.6788,3.6832,3.6841,3.6803,3.6942,3.6892,3.6951,3.6951,3.6981,3.6979,3.7148,3.7002,3.7001,3.7001,3.7001,0,3.6345,3.6421,3.6442,3.6496,3.658,3.6587,3.6669,3.6691,3.6728,3.6785,3.6774,3.6827,3.6836,3.6891,3.6899,3.6981,3.6995,3.7004,3.7005,3.7005,3.7004,3.7026,3.7018,3.7005,3.7004,3.7004,3.7003,0,3.6462,3.648,3.6573,3.6618,3.6631,3.6691,3.673,3.678,3.6796,3.6868,3.6885,3.691,3.6974,3.6988,3.7064,3.7069,3.7167,3.716,3.7152,3.7151,3.721,3.7205,3.7399,3.7425,3.7261,3.7263,3.7264,0,3.6545,3.6603,3.6655,3.6693,3.672,3.678,3.6818,3.6827,3.6867,3.6922,3.6966,3.7029,3.708,3.7183,3.7207,3.7265,3.726,3.7324,3.7269,3.7267,3.7261,3.7258,3.7263,3.7335,3.7336,3.7338,3.7339,0,3.669,3.6696,3.6752,3.6811,3.6857,3.6904,3.6948,3.698,3.6994,3.704,3.7106,3.7145,3.7223,3.7286,3.7344,3.7369,3.7357,3.7356,3.7373,3.7374,3.7367,3.7372,3.7181,3.7352,3.7351,3.735,3.7349,3.7348,3.6793,3.6844,3.6889,3.6951,3.6986,3.7028,3.7078,3.71,3.7156,3.7221,3.7222,3.7294,3.7337,3.7414,3.7442,3.7498,3.7478,3.7502,3.7508,3.7514,3.752,3.7358,3.7508,3.7508,3.7508,3.7507,3.7507,0,3.6938,3.6966,3.7023,3.7087,3.7136,3.7121,3.7169,3.7211,3.7275,3.7316,3.7367,3.7443,3.7504,3.7533,3.7593,3.7632,3.7628,3.7648,3.7645,3.7651,3.7534,3.7514,3.765,3.765,3.765,3.765,3.765,3.765,3.7019,3.7105,3.7116,3.7218,3.7245,3.7317,3.7346,3.7384,3.7417,3.7503,3.7554,3.7573,3.7609,3.7672,3.7727,3.7734,3.7756,3.7779,3.7783,3.7674,3.7659,3.7645,3.7626,3.7784,3.7784,3.7895,3.7896,3.7897]}]]